Weather History for Key West NAF, FL

Change the Weather History Date:

Friday, February 15, 2013

  Actual Average Record
Temperature  
Mean Temperature 70 °F -  
Max Temperature 73 °F 76 °F 83 °F (1952)
Min Temperature 66 °F 66 °F 49 °F (1985)
Cooling Degree Days 4    
Growing Degree Days 20 (Base 50)    
Moisture  
Dew Point 66 °F    
Average Humidity 88    
Maximum Humidity 94    
Minimum Humidity 79    
Precipitation  
Precipitation 0.13 in - - ()
Sea Level Pressure  
Sea Level Pressure 29.97 in    
Wind  
Wind Speed 10 mph (NE)    
Max Wind Speed 15 mph    
Max Gust Speed 21 mph    
Visibility 10 miles    
Events Rain    
Averages and records for this station are not official NWS values.
T = Trace of Precipitation, MM = Missing Value Source: NWS Daily Summary

Daily Weather History Graph

Daily Weather History Graph

Search for Another Location

Airport:

Trip Planner

Search our weather history database for the weather conditions in past years. The results will help you decide how hot, cold, wet, or windy it might be!

Date:

Astronomy

Feb. 15, 2013 Rise Set
Actual Time 7:00 AM EST 6:21 PM EST
Civil Twilight 6:37 AM EST 6:44 PM EST
Nautical Twilight 6:10 AM EST 7:11 PM EST
Astronomical Twilight 5:43 AM EST 7:38 PM EST
Moon 10:17 AM EST (2/15) 11:36 PM EST (2/15)
Length of Visible Light 12h 07m
Length of Day
11h 21m
Waxing Crescent, 30% of the Moon is Illuminated
Feb 15
Waxing Crescent
Feb 17
First Quarter
Feb 25
Full
Mar 4
Last Quarter
Mar 11
New

Hourly Weather History & Observations

Time (EST) Temp. Dew Point Humidity Pressure Visibility Wind Dir Wind Speed Gust Speed Precip Events Conditions
12:17 AM 68.0 °F 64.4 °F 88% 29.99 in 10.0 mi NE 12.7 mph - 0.00 in Rain Light Rain
12:53 AM 68.0 °F 64.0 °F 87% 29.98 in 10.0 mi NNE 15.0 mph 20.7 mph 0.00 in Rain Light Rain
1:53 AM 68.0 °F 64.9 °F 90% 29.97 in 10.0 mi NE 11.5 mph - 0.01 in Rain Light Rain
2:12 AM 68.0 °F 64.4 °F 88% 29.96 in 10.0 mi NNE 13.8 mph - 0.00 in Rain Light Rain
2:53 AM 68.0 °F 64.9 °F 90% 29.97 in 9.0 mi NNE 8.1 mph - 0.00 in Rain Light Rain
3:53 AM 66.9 °F 64.9 °F 93% 29.96 in 10.0 mi NNE 8.1 mph - 0.02 in Rain Light Rain
4:46 AM 68.0 °F 64.4 °F 88% 29.95 in 10.0 mi NE 6.9 mph - 0.00 in Rain Light Rain
4:53 AM 68.0 °F 64.9 °F 90% 29.96 in 10.0 mi NE 8.1 mph - 0.00 in Rain Light Rain
5:18 AM 68.0 °F 64.4 °F 88% 29.95 in 10.0 mi NE 9.2 mph - 0.00 in Rain Light Rain
5:53 AM 68.0 °F 64.9 °F 90% 29.96 in 10.0 mi NE 6.9 mph - 0.00 in Rain Light Rain
6:11 AM 68.0 °F 64.4 °F 88% 29.96 in 10.0 mi ENE 6.9 mph - 0.00 in Rain Light Rain
6:53 AM 69.1 °F 66.0 °F 90% 29.98 in 10.0 mi ENE 5.8 mph - 0.00 in   Mostly Cloudy
7:53 AM 70.0 °F 66.9 °F 90% 30.00 in 10.0 mi East 4.6 mph - N/A   Mostly Cloudy
8:53 AM 72.0 °F 66.9 °F 84% 30.01 in 10.0 mi NE 4.6 mph - N/A   Mostly Cloudy
9:53 AM 73.9 °F 68.0 °F 82% 30.01 in 10.0 mi East 4.6 mph - N/A   Mostly Cloudy
10:53 AM 73.9 °F 66.9 °F 79% 30.01 in 10.0 mi North 6.9 mph - N/A   Mostly Cloudy
11:53 AM 73.9 °F 66.9 °F 79% 30.01 in 10.0 mi North 9.2 mph - N/A   Mostly Cloudy
12:53 PM 71.1 °F 66.9 °F 87% 29.99 in 10.0 mi North 11.5 mph - 0.00 in Rain Light Rain
1:03 PM 71.6 °F 66.2 °F 83% 29.99 in 10.0 mi North 11.5 mph - 0.00 in   Mostly Cloudy
1:46 PM 71.6 °F 66.2 °F 83% 29.98 in 10.0 mi North 12.7 mph - 0.01 in Rain Light Rain
1:53 PM 71.1 °F 68.0 °F 90% 29.97 in 7.0 mi North 12.7 mph - 0.01 in Rain Light Rain
2:42 PM 71.6 °F 66.2 °F 83% 29.96 in 10.0 mi North 11.5 mph 19.6 mph 0.01 in Rain Light Rain
2:53 PM 70.0 °F 66.9 °F 90% 29.95 in 10.0 mi North 12.7 mph - 0.01 in Rain Light Rain
3:53 PM 70.0 °F 66.9 °F 90% 29.94 in 3.0 mi North 13.8 mph - 0.02 in Rain Light Rain
4:53 PM 69.1 °F 64.9 °F 87% 29.95 in 4.0 mi North 13.8 mph - 0.04 in Rain Light Rain
5:30 PM 68.0 °F 66.2 °F 94% 29.94 in 10.0 mi North 13.8 mph - 0.00 in   Overcast
5:53 PM 68.0 °F 66.0 °F 93% 29.93 in 10.0 mi NE 13.8 mph - 0.00 in   Overcast
6:53 PM 68.0 °F 64.9 °F 90% 29.94 in 10.0 mi NNE 8.1 mph 16.1 mph N/A   Mostly Cloudy
7:41 PM 69.8 °F 66.2 °F 88% 29.95 in 10.0 mi NE 8.1 mph - N/A   Overcast
7:53 PM 69.1 °F 66.0 °F 90% 29.95 in 10.0 mi ENE 8.1 mph - N/A   Overcast
8:29 PM 69.8 °F 66.2 °F 88% 29.97 in 10.0 mi East 8.1 mph - N/A   Overcast
8:53 PM 70.0 °F 66.0 °F 87% 29.98 in 10.0 mi NE 5.8 mph - N/A   Overcast
9:53 PM 70.0 °F 66.0 °F 87% 29.97 in 7.0 mi ENE 8.1 mph - 0.01 in Rain Light Rain
10:06 PM 69.8 °F 66.2 °F 88% 29.97 in 9.0 mi East 9.2 mph - 0.01 in Rain Light Rain
10:41 PM 69.8 °F 66.2 °F 88% 29.97 in 10.0 mi NNE 6.9 mph - 0.01 in Rain Light Rain
10:49 PM 69.8 °F 66.2 °F 88% 29.97 in 10.0 mi NE 5.8 mph - 0.01 in Rain Light Rain
10:53 PM 70.0 °F 66.9 °F 90% 29.96 in 10.0 mi NE 5.8 mph - 0.01 in Rain Light Rain
11:03 PM 69.8 °F 66.2 °F 88% 29.96 in 10.0 mi ENE 5.8 mph - 0.00 in Rain Light Rain
11:45 PM 69.8 °F 68.0 °F 94% 29.95 in 10.0 mi NNE 6.9 mph - 0.00 in Rain Light Rain
11:51 PM 69.8 °F 66.2 °F 88% 29.95 in 10.0 mi NE 6.9 mph - 0.00 in Rain Light Rain
11:53 PM 70.0 °F 66.9 °F 90% 29.95 in 10.0 mi NE 5.8 mph - 0.00 in Rain Light Rain